GFSFLT2_850_spd_159.txt.gz
Wind_Speed
2 2 3 5 6 8 7 8 9 9 11 13 14 15 15 15 16 16 16 16 16 16 16 16 16 15 14 14 13 12 11 10
4 4 3 3 4 5 6 6 7 9 11 13 14 14 15 16 18 19 18 19 18 18 19 19 18 18 17 17 16 16 15 13
3 3 4 3 4 4 6 7 8 9 11 13 13 16 15 15 16 17 20 20 21 21 21 22 21 21 20 20 20 20 15 13
3 3 3 4 5 7 9 11 11 12 12 13 13 14 14 18 19 20 19 22 23 24 24 24 25 25 20 19 23 23 18 17
5 5 6 7 8 9 10 11 13 14 16 17 16 16 18 16 18 19 21 20 20 23 25 27 29 23 20 21 20 18 20 19
5 6 7 8 9 9 9 11 12 13 16 18 19 20 21 21 20 21 19 23 24 23 24 26 27 24 24 24 24 22 20 20
4 5 5 6 7 8 10 10 11 12 13 16 18 18 20 21 22 22 20 19 20 28 26 27 28 28 28 27 26 26 25 24
5 6 5 6 7 8 10 13 14 13 14 17 17 18 20 20 21 19 17 18 18 22 28 31 30 29 32 35 30 30 27 26
8 8 9 9 10 10 10 12 12 13 14 17 21 20 19 19 19 18 16 19 22 21 23 24 31 34 34 34 36 34 33 29
6 6 8 8 9 9 10 11 11 12 13 15 19 19 22 22 20 17 20 22 22 21 19 21 25 27 35 36 37 39 37 35
5 6 7 7 8 8 10 11 11 11 12 15 18 19 21 20 19 20 24 23 21 22 21 20 25 29 27 35 34 37 40 41
5 6 8 8 9 9 8 9 9 10 12 15 18 18 22 24 20 22 23 24 24 25 27 27 27 34 33 34 34 36 37 46
6 6 8 8 8 9 9 9 8 10 12 15 17 19 20 20 22 23 23 24 26 26 28 29 29 22 30 33 39 37 41 43
5 6 7 7 8 8 9 9 9 9 11 14 17 19 20 19 23 25 28 28 29 27 26 29 26 23 24 31 30 32 36 42
4 6 7 7 7 8 9 8 8 10 13 14 17 18 19 20 21 22 23 25 25 24 24 25 32 33 23 19 12 24 30 32
4 5 7 9 9 9 10 10 11 12 13 14 15 17 18 20 25 24 22 23 22 25 23 24 27 32 34 33 34 35 17 21
4 6 7 8 9 10 10 10 11 12 14 16 16 16 17 18 24 25 25 25 26 26 25 23 24 27 27 34 38 47 46 35
4 6 7 8 9 9 11 12 12 13 15 15 16 16 16 18 24 24 24 26 27 27 27 24 23 25 27 26 29 30 34 29
5 6 6 7 8 10 10 11 12 12 14 15 17 18 18 20 23 24 25 26 27 26 27 25 24 26 26 28 30 30 33 33
5 5 5 8 8 9 9 10 10 10 12 14 14 16 18 20 22 23 25 25 27 28 27 27 26 28 22 21 27 26 28 37

GFSFLT2_850_spd_162.txt.gz
Wind_Speed
4 3 3 4 6 7 7 7 7 7 8 9 9 10 12 15 16 16 17 16 17 17 17 18 16 16 16 15 14 14 13 11
4 4 4 4 5 5 6 6 7 8 8 9 9 12 12 13 16 18 18 18 19 19 19 19 19 19 19 19 18 17 17 14
3 2 3 3 4 4 6 7 8 8 9 8 9 9 10 14 16 16 16 19 21 20 21 22 22 22 22 22 22 22 21 18
2 1 2 3 4 5 7 9 10 11 12 11 11 11 12 12 14 13 17 18 20 23 23 24 24 26 27 25 24 24 24 23
3 2 4 6 7 8 10 11 11 12 13 14 15 14 15 16 16 16 15 15 18 21 21 23 25 24 27 24 25 27 25 22
4 5 6 7 9 9 10 10 11 11 14 16 15 16 18 17 18 18 16 14 18 18 20 23 25 26 27 27 28 29 27 23
3 5 6 7 8 9 10 10 11 11 13 16 18 18 18 20 19 18 16 15 17 20 22 23 28 28 28 31 32 33 34 26
2 4 5 5 6 7 8 11 11 12 13 16 16 17 19 19 18 17 15 20 22 23 23 23 23 24 32 32 31 35 31 34
3 4 5 5 6 7 8 9 9 11 12 14 17 18 18 18 17 16 19 22 24 24 23 23 22 20 26 32 34 32 35 37
4 5 5 5 6 7 7 9 9 10 11 14 16 17 18 19 18 19 22 21 22 22 24 26 26 27 28 33 34 36 31 33
4 4 4 4 5 5 7 8 9 9 11 13 15 17 19 19 19 20 21 22 23 24 26 27 29 27 29 34 36 39 37 31
3 5 5 4 5 5 4 5 5 9 11 15 16 17 17 19 20 21 22 22 23 24 26 26 27 28 32 33 36 39 39 38
3 5 6 3 3 4 4 5 6 7 9 12 14 16 19 18 19 22 24 25 26 26 27 29 29 30 33 36 38 38 38 42
2 3 5 5 3 5 5 6 7 6 10 11 14 16 16 17 20 22 22 24 25 27 29 29 28 28 27 32 22 36 15 21
3 4 5 5 3 4 3 3 2 6 8 10 13 14 15 17 21 22 22 23 25 27 27 27 31 28 21 15 14 10 38 26
3 4 3 5 5 5 5 5 6 8 10 11 11 12 15 19 21 22 23 24 25 26 26 26 25 28 27 17 18 27 26 32
1 3 3 5 6 7 7 8 8 8 11 11 12 13 13 18 22 23 23 24 25 26 27 26 25 24 25 27 27 23 25 31
1 3 5 5 7 9 9 10 11 11 12 12 14 14 16 18 22 23 23 23 24 26 26 23 24 22 25 26 23 22 26 29
3 4 3 5 7 7 8 9 10 11 13 14 15 16 18 21 23 23 23 22 23 24 24 23 23 25 27 24 21 21 19 25
2 3 2 4 5 6 7 9 8 9 12 14 14 14 16 20 21 21 20 22 22 22 22 21 23 24 25 25 25 22 22 26

GFSFLT2_850_spd_165.txt.gz
Wind_Speed
6 5 4 3 5 6 5 5 4 4 4 5 6 7 9 10 11 13 16 16 18 16 15 16 17 16 16 15 15 13 13 10
6 5 4 4 5 3 3 4 4 4 5 5 5 6 9 10 11 11 13 15 17 18 19 19 19 19 19 18 18 18 17 14
4 4 3 1 2 0 2 4 6 6 5 5 6 7 7 8 9 11 14 15 15 15 17 18 22 23 22 22 21 22 21 19
2 3 3 1 1 3 6 7 8 10 9 10 9 11 12 12 12 13 13 13 15 16 16 16 19 23 25 26 25 23 23 20
2 2 2 1 2 4 5 7 8 10 11 12 13 13 13 13 14 12 12 16 17 17 19 20 20 20 21 24 25 24 23 19
1 1 0 2 3 4 6 6 8 10 12 12 12 13 14 14 14 15 16 15 16 18 20 21 21 22 22 24 26 25 27 26
1 2 2 2 3 3 5 6 7 9 11 12 14 14 13 13 14 14 15 17 19 19 21 22 24 25 25 26 26 27 25 29
1 1 2 3 3 4 5 6 7 8 10 12 12 14 15 15 14 14 15 17 18 19 21 22 23 24 24 25 26 29 30 28
3 2 2 3 4 4 6 6 7 8 10 10 12 13 14 15 14 15 15 15 16 17 18 19 20 21 24 26 28 29 33 33
2 2 2 3 4 5 6 7 8 9 10 11 12 13 14 14 15 17 18 17 17 18 20 20 21 22 22 22 26 29 32 36
3 3 2 3 3 2 3 5 8 10 11 11 13 14 16 16 16 16 17 19 20 22 22 23 25 26 26 26 25 26 28 32
4 2 0 1 2 3 2 1 5 9 13 14 14 15 15 16 16 18 19 20 20 22 25 26 28 30 32 31 28 21 19 21
4 5 2 2 3 3 3 4 4 7 11 13 14 15 15 15 16 18 19 22 23 24 25 28 29 33 36 38 33 26 11 14
3 7 6 4 2 3 3 6 1 6 10 10 12 15 16 19 20 20 19 20 22 24 26 28 29 30 30 28 23 24 8 32
1 5 7 4 4 3 1 3 5 7 7 8 11 12 16 19 19 19 19 20 21 23 24 25 27 26 24 16 14 13 48 18
3 5 6 7 5 4 4 4 5 6 9 9 9 10 14 17 19 18 17 18 19 20 20 21 21 24 22 16 14 18 14 30
1 5 5 6 6 5 6 6 7 6 8 8 8 10 13 17 19 18 18 19 19 20 19 18 19 19 19 23 22 20 18 23
1 4 5 4 6 7 7 6 7 8 9 9 10 12 14 18 18 19 18 19 20 19 17 17 16 17 18 19 18 19 26 27
3 2 5 2 4 4 6 5 6 9 11 11 12 14 15 19 21 20 20 20 19 19 17 15 17 16 18 18 20 19 17 23
7 6 7 0 3 1 5 5 6 8 11 12 13 14 15 17 19 19 20 21 19 18 16 17 17 16 17 19 19 19 20 22

GFSFLT2_850_spd_168.txt.gz
Wind_Speed
6 6 5 4 3 1 1 1 1 1 2 3 6 8 9 10 12 13 14 15 15 15 15 14 16 14 14 13 13 13 13 12
8 7 6 3 1 2 1 1 1 3 4 5 6 7 9 10 12 14 16 16 16 14 15 17 18 17 16 16 16 16 15 15
7 7 5 2 3 2 2 5 5 4 5 6 7 8 9 10 12 13 15 16 17 18 18 18 18 19 18 18 18 19 18 18
5 5 5 4 4 3 4 7 7 6 6 6 7 8 10 11 13 14 17 19 19 18 20 20 21 20 20 20 19 21 21 21
3 5 5 5 4 3 4 5 7 6 6 7 8 8 9 11 12 12 13 15 16 17 19 21 21 23 22 22 22 21 22 23
4 4 4 3 2 1 2 4 6 8 7 8 8 9 10 10 12 13 14 14 15 17 18 19 20 23 24 25 25 26 27 25
5 4 3 2 1 1 2 5 6 8 9 9 9 10 10 11 12 13 14 15 15 15 16 17 19 20 21 23 25 27 28 29
3 2 2 2 1 1 2 4 5 8 9 10 11 12 13 13 12 13 14 15 16 17 18 18 17 19 20 21 23 25 27 29
2 1 2 2 2 1 1 3 4 6 9 10 11 12 13 14 14 14 14 15 16 17 16 16 17 17 17 18 20 22 24 29
2 1 3 4 4 3 1 3 5 6 8 10 11 12 13 14 15 15 16 15 16 16 18 19 19 19 19 17 16 17 20 24
3 3 5 5 4 2 1 2 6 8 9 11 13 12 13 13 14 15 17 18 19 20 21 23 24 24 24 23 20 14 12 16
4 1 4 4 4 3 3 4 6 9 11 13 14 14 14 14 15 15 17 17 18 20 22 24 26 29 29 25 21 15 13 9
4 2 3 3 4 5 8 7 4 7 10 13 13 14 14 14 14 15 16 17 18 20 22 24 26 29 31 30 24 20 7 9
6 5 4 3 2 3 5 4 3 6 9 12 12 12 14 16 16 16 17 18 18 20 22 24 25 27 26 24 19 18 17 20
4 4 5 3 1 3 4 5 4 6 6 8 11 13 14 16 17 16 16 17 19 20 20 21 22 22 17 18 11 10 41 22
5 5 6 3 1 1 3 3 2 5 7 9 10 12 13 15 16 16 17 18 18 18 18 18 18 20 18 18 10 12 12 23
4 4 4 3 2 3 3 3 4 5 6 7 9 11 12 14 16 17 17 17 18 17 16 16 16 19 18 20 19 19 7 16
6 4 1 1 2 4 5 5 5 6 6 7 9 12 14 16 17 17 17 17 17 16 15 14 16 14 16 16 17 18 21 19
8 5 2 2 3 4 5 5 6 6 8 10 12 13 15 17 17 17 17 17 15 13 13 14 13 13 15 16 14 15 19 25
8 5 3 3 4 4 5 5 6 7 9 12 12 13 15 15 16 17 16 15 13 12 12 14 12 12 14 14 15 16 18 19

GFSFLT2_850_spd_171.txt.gz
Wind_Speed
8 7 7 6 5 4 4 3 2 3 4 6 7 8 9 10 12 14 15 15 14 15 16 17 17 16 14 14 14 13 15 14
9 9 7 5 4 5 4 3 3 4 5 6 7 9 10 12 12 14 15 16 16 16 16 16 18 19 19 19 18 16 16 17
9 9 8 7 5 5 5 5 5 6 7 8 9 11 12 13 14 15 16 17 17 17 18 19 19 19 20 21 22 20 21 21
9 10 10 8 7 7 7 8 7 7 8 9 9 10 11 13 14 15 16 18 19 20 21 21 21 22 22 22 22 23 23 24
8 9 9 8 8 7 8 8 8 6 7 9 10 11 12 12 13 13 14 15 16 17 18 20 21 22 24 24 25 24 25 25
6 8 9 8 7 6 7 7 6 6 5 5 7 9 10 12 13 14 14 15 15 15 16 16 18 20 22 23 25 26 26 27
6 7 7 6 5 5 4 5 5 6 7 7 7 8 9 10 12 13 15 15 15 15 15 15 15 15 16 18 21 24 26 29
4 4 4 4 3 2 2 3 6 7 7 8 9 10 10 12 12 14 15 16 16 17 17 16 15 15 14 15 16 17 21 26
6 6 6 5 3 2 2 4 6 8 9 10 12 13 13 13 14 15 15 15 16 17 17 18 17 15 14 13 14 16 17 19
6 6 5 5 5 3 4 5 7 10 10 11 12 12 13 14 15 15 16 17 18 18 18 18 17 17 17 15 15 14 14 15
4 3 4 3 3 4 6 7 8 9 9 10 10 11 12 14 14 16 16 17 19 20 20 22 23 22 19 17 15 11 11 11
2 2 3 4 5 7 7 7 8 9 9 9 10 11 12 12 14 15 17 17 18 19 20 21 23 25 24 20 13 10 7 3
3 3 4 5 8 10 10 9 9 10 10 12 12 13 13 13 14 15 16 17 18 19 21 22 23 24 25 24 17 11 1 18
4 4 3 4 7 10 9 7 7 9 10 11 11 11 13 14 14 15 16 17 18 19 21 22 23 26 25 19 15 13 7 13
3 4 3 3 4 7 7 6 7 8 9 10 11 13 14 14 15 15 16 17 18 19 19 21 22 22 21 18 10 9 36 16
2 4 4 3 3 4 7 8 7 6 8 10 11 12 14 15 16 16 17 17 17 17 17 18 19 20 17 17 10 12 11 19
3 5 4 3 4 4 4 3 2 4 6 9 11 11 13 15 16 16 16 16 17 16 15 17 17 16 17 17 14 14 3 16
4 5 4 3 3 2 1 3 4 4 5 8 11 12 13 15 15 15 15 15 14 14 15 15 14 14 14 14 14 13 15 15
5 6 4 4 3 2 3 2 5 6 8 11 12 13 13 14 14 14 14 14 13 13 13 13 13 13 14 14 12 13 16 18
7 7 5 5 4 3 1 5 5 7 9 12 12 12 13 13 14 14 13 13 13 13 13 13 12 12 12 12 15 14 15 15

GFSFLT2_850_spd_174.txt.gz
Wind_Speed
8 7 6 5 5 4 3 3 3 3 5 6 7 8 9 10 12 13 14 15 14 14 14 15 16 18 17 17 17 16 17 16
9 8 6 5 4 5 3 3 2 3 6 7 8 10 11 12 13 14 14 16 16 16 16 16 16 16 18 20 20 18 19 20
8 7 6 6 5 4 3 3 4 6 7 8 8 10 11 12 13 14 16 18 19 19 19 19 19 19 19 20 20 21 21 23
9 8 7 7 6 5 4 4 4 5 6 7 7 8 9 10 11 12 13 14 17 18 19 19 20 22 22 23 22 21 21 23
9 9 9 9 8 7 6 4 4 5 6 7 7 8 9 10 10 9 10 12 13 13 14 16 18 20 21 22 23 24 23 23
6 8 9 10 9 8 7 5 5 5 6 6 7 8 9 9 10 11 12 12 13 14 13 14 13 14 17 18 21 22 24 25
6 6 6 7 7 7 6 5 5 6 7 8 9 11 12 13 13 14 14 14 14 15 16 15 14 14 14 14 15 18 21 23
6 6 7 7 7 5 5 5 6 7 8 10 11 11 11 12 13 14 14 15 16 16 15 15 15 14 14 14 15 14 14 17
6 6 7 6 5 5 4 4 5 7 9 10 12 13 12 12 13 13 15 15 15 16 16 15 14 13 13 13 13 14 13 10
5 5 5 4 5 5 5 5 6 9 11 13 14 15 15 15 15 15 15 16 16 16 16 16 16 16 15 14 13 11 10 7
3 4 5 6 6 7 7 7 8 10 11 12 12 12 13 14 15 15 15 16 16 17 17 18 18 16 15 14 11 9 7 5
3 5 6 7 7 7 7 8 8 10 11 11 12 13 13 13 14 14 15 16 17 17 18 18 19 19 17 15 7 6 2 6
4 5 7 8 9 9 9 8 9 9 11 12 13 13 14 14 15 15 15 16 17 18 19 21 21 21 20 15 8 4 4 18
4 4 6 8 9 9 10 8 7 8 10 12 12 12 13 14 14 15 15 16 17 19 20 21 22 22 20 15 10 6 3 10
5 5 5 7 8 10 10 8 7 8 9 10 11 13 14 14 15 15 16 17 18 20 20 20 20 19 18 13 7 6 25 3
8 6 4 5 6 7 8 7 7 7 7 8 9 10 12 13 14 15 16 17 16 17 17 17 17 17 15 14 7 7 7 14
9 6 5 3 4 5 4 4 4 6 7 8 9 11 12 13 14 15 15 16 16 16 16 16 15 15 16 15 13 8 5 9
10 6 4 4 3 3 3 3 3 5 6 7 7 10 11 11 12 13 14 14 14 14 15 14 14 14 13 13 13 12 15 13
9 6 5 5 4 3 2 2 2 2 5 7 8 9 9 11 12 12 13 14 14 14 14 14 14 14 14 14 13 13 14 15
10 8 7 6 5 4 2 2 2 3 6 7 7 9 10 11 11 12 13 13 13 14 14 14 14 14 14 14 14 14 14 15